2023-117A (57580 NORAD) Tracking and Keplerian Element Data

This shows tracking and keplerian element data for the satellite.

Feedback or suggestion? Click here.




ElementValue
Catalog57580
Name2023-117A
Epoch Orbit257
Epoch Day239.16434098
Epoch Year2023
RAAN310.7749
Inclination97.5227
Eccentricity0.0011938
Argument of Perigee228.857
Mean Anonmoly131.163
Mean Motion15.11303605
Decay Rate0.00010349
L11 57580U 23117A 23239.16434098 .00010349 00000+0 61690-3 0 9994
L22 57580 97.5227 310.7749 0011938 228.8570 131.1630 15.11303605 2578



Live tracking and technical data element details for 2023-117A (NORAD 57580). 2023-117A can be tracked NOW for your location showing map with azimuth and elevation plus other details from your city location.







IsCatalogInMostPopularTable: catalog: 57580, numindb: 5
Update: records affected: 1



GetName: 57580 2023-117A

Hit Count: updated at: Tue, 26 Sep 2023 13:21:54 GMT